Year,Month,Day,Hour,Minute,Value (Times are PST for temperature in C)
2007,07,26,00,00,15.70
2007,07,26,00,01,15.70
2007,07,26,00,02,15.70
2007,07,26,00,03,15.70
2007,07,26,00,04,15.60
2007,07,26,00,05,15.60
2007,07,26,00,06,15.60
2007,07,26,00,07,15.60
2007,07,26,00,08,15.70
2007,07,26,00,09,15.70
2007,07,26,00,10,15.70
2007,07,26,00,11,15.70
2007,07,26,00,12,15.70
2007,07,26,00,13,15.70
2007,07,26,00,14,15.70
2007,07,26,00,15,15.70
2007,07,26,00,16,15.70
2007,07,26,00,17,15.70
2007,07,26,00,18,15.70
2007,07,26,00,19,15.70
2007,07,26,00,20,15.70
2007,07,26,00,21,15.70
2007,07,26,00,22,15.70
2007,07,26,00,23,15.70
2007,07,26,00,24,15.70
2007,07,26,00,25,15.70
2007,07,26,00,26,15.70
2007,07,26,00,27,15.70
2007,07,26,00,28,15.70
2007,07,26,00,29,15.70
2007,07,26,00,30,15.70
2007,07,26,00,31,15.70
2007,07,26,00,32,15.70
2007,07,26,00,33,15.70
2007,07,26,00,34,15.60
2007,07,26,00,35,15.60
2007,07,26,00,36,15.60
2007,07,26,00,37,15.60
2007,07,26,00,38,15.60
2007,07,26,00,39,15.60
2007,07,26,00,40,15.60
2007,07,26,00,41,15.50
2007,07,26,00,42,15.50
2007,07,26,00,43,15.50
2007,07,26,00,44,15.50
2007,07,26,00,45,15.50
2007,07,26,00,46,15.50
2007,07,26,00,47,15.50
2007,07,26,00,48,15.50
2007,07,26,00,49,15.50
2007,07,26,00,50,15.50
2007,07,26,00,51,15.50
2007,07,26,00,52,15.50
2007,07,26,00,53,15.50
2007,07,26,00,54,15.50
2007,07,26,00,55,15.50
2007,07,26,00,56,15.50
2007,07,26,00,57,15.50
2007,07,26,00,58,15.50
2007,07,26,00,59,15.50
2007,07,26,01,00,15.50
2007,07,26,01,01,15.40
2007,07,26,01,02,15.40
2007,07,26,01,03,15.40
2007,07,26,01,04,15.40
2007,07,26,01,05,15.50
2007,07,26,01,06,15.50
2007,07,26,01,07,15.50
2007,07,26,01,08,15.50
2007,07,26,01,09,15.50
2007,07,26,01,10,15.50
2007,07,26,01,11,15.50
2007,07,26,01,12,15.60
2007,07,26,01,13,15.60
2007,07,26,01,14,15.60
2007,07,26,01,15,15.60
2007,07,26,01,16,15.60
2007,07,26,01,17,15.70
2007,07,26,01,18,15.70
2007,07,26,01,19,15.70
2007,07,26,01,20,15.70
2007,07,26,01,21,15.70
2007,07,26,01,22,15.70
2007,07,26,01,23,15.70
2007,07,26,01,24,15.70
2007,07,26,01,25,15.70
2007,07,26,01,26,15.60
2007,07,26,01,27,15.60
2007,07,26,01,28,15.60
2007,07,26,01,29,15.60
2007,07,26,01,30,15.60
2007,07,26,01,31,15.60
2007,07,26,01,32,15.50
2007,07,26,01,33,15.50
2007,07,26,01,34,15.50
2007,07,26,01,35,15.50
2007,07,26,01,36,15.50
2007,07,26,01,37,15.40
2007,07,26,01,38,15.40
2007,07,26,01,39,15.40
2007,07,26,01,40,15.40
2007,07,26,01,41,15.40
2007,07,26,01,42,15.30
2007,07,26,01,43,15.30
2007,07,26,01,44,15.30
2007,07,26,01,45,15.30
2007,07,26,01,46,15.30
2007,07,26,01,47,15.30
2007,07,26,01,48,15.30
2007,07,26,01,49,15.30
2007,07,26,01,50,15.30
2007,07,26,01,51,15.30
2007,07,26,01,52,15.20
2007,07,26,01,53,15.20
2007,07,26,01,54,15.20
2007,07,26,01,55,15.20
2007,07,26,01,56,15.20
2007,07,26,01,57,15.10
2007,07,26,01,58,15.10
2007,07,26,01,59,15.10
2007,07,26,02,00,15.10
2007,07,26,02,01,15.10
2007,07,26,02,02,15.10
2007,07,26,02,03,15.00
2007,07,26,02,04,15.00
2007,07,26,02,05,15.00
2007,07,26,02,06,15.00
2007,07,26,02,07,15.00
2007,07,26,02,08,14.90
2007,07,26,02,09,14.90
2007,07,26,02,10,14.90
2007,07,26,02,11,14.90
2007,07,26,02,12,14.80
2007,07,26,02,13,14.80
2007,07,26,02,14,14.80
2007,07,26,02,15,14.80
2007,07,26,02,16,14.80
2007,07,26,02,17,14.70
2007,07,26,02,18,14.70
2007,07,26,02,19,14.70
2007,07,26,02,20,14.70
2007,07,26,02,21,14.60
2007,07,26,02,22,14.60
2007,07,26,02,23,14.60
2007,07,26,02,24,14.60
2007,07,26,02,25,14.60
2007,07,26,02,26,14.50
2007,07,26,02,27,14.50
2007,07,26,02,28,14.50
2007,07,26,02,29,14.40
2007,07,26,02,30,14.40
2007,07,26,02,31,14.40
2007,07,26,02,32,14.30
2007,07,26,02,33,14.30
2007,07,26,02,34,14.30
2007,07,26,02,35,14.30
2007,07,26,02,36,14.30
2007,07,26,02,37,14.30
2007,07,26,02,38,14.30
2007,07,26,02,39,14.20
2007,07,26,02,40,14.20
2007,07,26,02,41,14.20
2007,07,26,02,42,14.20
2007,07,26,02,43,14.20
2007,07,26,02,44,14.20
2007,07,26,02,45,14.20
2007,07,26,02,46,14.20
2007,07,26,02,47,14.20
2007,07,26,02,48,14.20
2007,07,26,02,49,14.20
2007,07,26,02,50,14.20
2007,07,26,02,51,14.20
2007,07,26,02,52,14.20
2007,07,26,02,53,14.20
2007,07,26,02,54,14.20
2007,07,26,02,55,14.20
2007,07,26,02,56,14.10
2007,07,26,02,57,14.10
2007,07,26,02,58,14.10
2007,07,26,02,59,14.10
2007,07,26,03,00,14.10
2007,07,26,03,01,14.10
2007,07,26,03,02,14.10
2007,07,26,03,03,14.10
2007,07,26,03,04,14.10
2007,07,26,03,05,14.10
2007,07,26,03,06,14.10
2007,07,26,03,07,14.10
2007,07,26,03,08,14.10
2007,07,26,03,09,14.10
2007,07,26,03,10,14.20
2007,07,26,03,11,14.20
2007,07,26,03,12,14.20
2007,07,26,03,13,14.10
2007,07,26,03,14,14.10
2007,07,26,03,15,14.10
2007,07,26,03,16,14.10
2007,07,26,03,17,14.00
2007,07,26,03,18,14.00
2007,07,26,03,19,14.00
2007,07,26,03,20,14.00
2007,07,26,03,21,14.00
2007,07,26,03,22,13.90
2007,07,26,03,23,13.90
2007,07,26,03,24,13.90
2007,07,26,03,25,13.90
2007,07,26,03,26,13.90
2007,07,26,03,27,13.80
2007,07,26,03,28,13.80
2007,07,26,03,29,13.80
2007,07,26,03,30,13.80
2007,07,26,03,31,13.80
2007,07,26,03,32,13.70
2007,07,26,03,33,13.70
2007,07,26,03,34,13.70
2007,07,26,03,35,13.70
2007,07,26,03,36,13.70
2007,07,26,03,37,13.70
2007,07,26,03,38,13.70
2007,07,26,03,39,13.70
2007,07,26,03,40,13.70
2007,07,26,03,41,13.70
2007,07,26,03,42,13.70
2007,07,26,03,43,13.70
2007,07,26,03,44,13.70
2007,07,26,03,45,13.70
2007,07,26,03,46,13.70
2007,07,26,03,47,13.70
2007,07,26,03,48,13.70
2007,07,26,03,49,13.60
2007,07,26,03,50,13.60
2007,07,26,03,51,13.60
2007,07,26,03,52,13.60
2007,07,26,03,53,13.60
2007,07,26,03,54,13.60
2007,07,26,03,55,13.60
2007,07,26,03,56,13.60
2007,07,26,03,57,13.60
2007,07,26,03,58,13.60
2007,07,26,03,59,13.60
2007,07,26,04,00,13.60
2007,07,26,04,01,13.60
2007,07,26,04,02,13.60
2007,07,26,04,03,13.60
2007,07,26,04,04,13.60
2007,07,26,04,05,13.60
2007,07,26,04,06,13.50
2007,07,26,04,07,13.50
2007,07,26,04,08,13.50
2007,07,26,04,09,13.50
2007,07,26,04,10,13.50
2007,07,26,04,11,13.50
2007,07,26,04,12,13.50
2007,07,26,04,13,13.60
2007,07,26,04,14,13.60
2007,07,26,04,15,13.60
2007,07,26,04,16,13.60
2007,07,26,04,17,13.60
2007,07,26,04,18,13.60
2007,07,26,04,19,13.60
2007,07,26,04,20,13.60
2007,07,26,04,21,13.60
2007,07,26,04,22,13.60
2007,07,26,04,23,13.60
2007,07,26,04,24,13.60
2007,07,26,04,25,13.60
2007,07,26,04,26,13.70
2007,07,26,04,27,13.70
2007,07,26,04,28,13.70
2007,07,26,04,29,13.70
2007,07,26,04,30,13.70
2007,07,26,04,31,13.70
2007,07,26,04,32,13.70
2007,07,26,04,33,13.70
2007,07,26,04,34,13.70
2007,07,26,04,35,13.70
2007,07,26,04,36,13.70
2007,07,26,04,37,13.70
2007,07,26,04,38,13.70
2007,07,26,04,39,13.70
2007,07,26,04,40,13.70
2007,07,26,04,41,13.70
2007,07,26,04,42,13.70
2007,07,26,04,43,13.70
2007,07,26,04,44,13.70
2007,07,26,04,45,13.70
2007,07,26,04,46,13.70
2007,07,26,04,47,13.70
2007,07,26,04,48,13.70
2007,07,26,04,49,13.70
2007,07,26,04,50,13.70
2007,07,26,04,51,13.70
2007,07,26,04,52,13.70
2007,07,26,04,53,13.60
2007,07,26,04,54,13.60
2007,07,26,04,55,13.60
2007,07,26,04,56,13.60
2007,07,26,04,57,13.60
2007,07,26,04,58,13.60
2007,07,26,04,59,13.60
2007,07,26,05,00,13.70
2007,07,26,05,01,13.70
2007,07,26,05,02,13.70
2007,07,26,05,03,13.60
2007,07,26,05,04,13.70
2007,07,26,05,05,13.70
2007,07,26,05,06,13.70
2007,07,26,05,07,13.70
2007,07,26,05,08,13.70
2007,07,26,05,09,13.70
2007,07,26,05,10,13.70
2007,07,26,05,11,13.70
2007,07,26,05,12,13.70
2007,07,26,05,13,13.70
2007,07,26,05,14,13.70
2007,07,26,05,15,13.70
2007,07,26,05,16,13.70
2007,07,26,05,17,13.70
2007,07,26,05,18,13.70
2007,07,26,05,19,13.70
2007,07,26,05,20,13.70
2007,07,26,05,21,13.70
2007,07,26,05,22,13.70
2007,07,26,05,23,13.70
2007,07,26,05,24,13.70
2007,07,26,05,25,13.70
2007,07,26,05,26,13.70
2007,07,26,05,27,13.70
2007,07,26,05,28,13.70
2007,07,26,05,29,13.70
2007,07,26,05,30,13.70
2007,07,26,05,31,13.70
2007,07,26,05,32,13.70
2007,07,26,05,33,13.70
2007,07,26,05,34,13.70
2007,07,26,05,35,13.70
2007,07,26,05,36,13.70
2007,07,26,05,37,13.70
2007,07,26,05,38,13.70
2007,07,26,05,39,13.70
2007,07,26,05,40,13.70
2007,07,26,05,41,13.70
2007,07,26,05,42,13.70
2007,07,26,05,43,13.70
2007,07,26,05,44,13.70
2007,07,26,05,45,13.70
2007,07,26,05,46,13.70
2007,07,26,05,47,13.70
2007,07,26,05,48,13.70
2007,07,26,05,49,13.70
2007,07,26,05,50,13.70
2007,07,26,05,51,13.60
2007,07,26,05,52,13.60
2007,07,26,05,53,13.60
2007,07,26,05,54,13.60
2007,07,26,05,55,13.60
2007,07,26,05,56,13.60
2007,07,26,05,57,13.60
2007,07,26,05,58,13.60
2007,07,26,05,59,13.60
2007,07,26,06,00,13.60
2007,07,26,06,01,13.60
2007,07,26,06,02,13.60
2007,07,26,06,03,13.60
2007,07,26,06,04,13.60
2007,07,26,06,05,13.60
2007,07,26,06,06,13.60
2007,07,26,06,07,13.60
2007,07,26,06,08,13.60
2007,07,26,06,09,13.60
2007,07,26,06,10,13.60
2007,07,26,06,11,13.60
2007,07,26,06,12,13.50
2007,07,26,06,13,13.60
2007,07,26,06,14,13.50
2007,07,26,06,15,13.50
2007,07,26,06,16,13.50
2007,07,26,06,17,13.50
2007,07,26,06,18,13.50
2007,07,26,06,19,13.50
2007,07,26,06,20,13.50
2007,07,26,06,21,13.50
2007,07,26,06,22,13.50
2007,07,26,06,23,13.50
2007,07,26,06,24,13.50
2007,07,26,06,25,13.50
2007,07,26,06,26,13.50
2007,07,26,06,27,13.50
2007,07,26,06,28,13.50
2007,07,26,06,29,13.50
2007,07,26,06,30,13.50
2007,07,26,06,31,13.50
2007,07,26,06,32,13.50
2007,07,26,06,33,13.50
2007,07,26,06,34,13.60
2007,07,26,06,35,13.60
2007,07,26,06,36,13.60
2007,07,26,06,37,13.60
2007,07,26,06,38,13.60
2007,07,26,06,39,13.70
2007,07,26,06,40,13.70
2007,07,26,06,41,13.70
2007,07,26,06,42,13.70
2007,07,26,06,43,13.70
2007,07,26,06,44,13.80
2007,07,26,06,45,13.80
2007,07,26,06,46,13.80
2007,07,26,06,47,13.80
2007,07,26,06,48,13.90
2007,07,26,06,49,13.90
2007,07,26,06,50,13.90
2007,07,26,06,51,13.90
2007,07,26,06,52,13.90
2007,07,26,06,53,14.00
2007,07,26,06,54,14.00
2007,07,26,06,55,14.00
2007,07,26,06,56,14.00
2007,07,26,06,57,14.10
2007,07,26,06,58,14.10
2007,07,26,06,59,14.10
2007,07,26,07,00,14.10
2007,07,26,07,01,14.20
2007,07,26,07,02,14.20
2007,07,26,07,03,14.20
2007,07,26,07,04,14.20
2007,07,26,07,05,14.20
2007,07,26,07,06,14.20
2007,07,26,07,07,14.20
2007,07,26,07,08,14.30
2007,07,26,07,09,14.30
2007,07,26,07,10,14.40
2007,07,26,07,11,14.40
2007,07,26,07,12,14.40
2007,07,26,07,13,14.40
2007,07,26,07,14,14.50
2007,07,26,07,15,14.50
2007,07,26,07,16,14.50
2007,07,26,07,17,14.60
2007,07,26,07,18,14.60
2007,07,26,07,19,14.60
2007,07,26,07,20,14.70
2007,07,26,07,21,14.70
2007,07,26,07,22,14.70
2007,07,26,07,23,14.70
2007,07,26,07,24,14.80
2007,07,26,07,25,14.80
2007,07,26,07,26,14.80
2007,07,26,07,27,14.80
2007,07,26,07,28,14.80
2007,07,26,07,29,14.90
2007,07,26,07,30,14.90
2007,07,26,07,31,14.90
2007,07,26,07,32,15.00
2007,07,26,07,33,15.00
2007,07,26,07,34,15.10
2007,07,26,07,35,15.10
2007,07,26,07,36,15.10
2007,07,26,07,37,15.20
2007,07,26,07,38,15.20
2007,07,26,07,39,15.20
2007,07,26,07,40,15.30
2007,07,26,07,41,15.30
2007,07,26,07,42,15.30
2007,07,26,07,43,15.40
2007,07,26,07,44,15.40
2007,07,26,07,45,15.50
2007,07,26,07,46,15.50
2007,07,26,07,47,15.50
2007,07,26,07,48,15.50
2007,07,26,07,49,15.50
2007,07,26,07,50,15.50
2007,07,26,07,51,15.50
2007,07,26,07,52,15.60
2007,07,26,07,53,15.60
2007,07,26,07,54,15.60
2007,07,26,07,55,15.60
2007,07,26,07,56,15.60
2007,07,26,07,57,15.70
2007,07,26,07,58,15.70
2007,07,26,07,59,15.80
2007,07,26,08,00,15.80
2007,07,26,08,01,15.80
2007,07,26,08,02,15.90
2007,07,26,08,03,15.90
2007,07,26,08,04,16.00
2007,07,26,08,05,16.10
2007,07,26,08,06,16.10
2007,07,26,08,07,16.10
2007,07,26,08,08,16.10
2007,07,26,08,09,16.10
2007,07,26,08,10,16.00
2007,07,26,08,11,15.90
2007,07,26,08,12,15.90
2007,07,26,08,13,15.80
2007,07,26,08,14,15.80
2007,07,26,08,15,15.80
2007,07,26,08,16,15.80
2007,07,26,08,17,15.80
2007,07,26,08,18,15.80
2007,07,26,08,19,15.80
2007,07,26,08,20,15.80
2007,07,26,08,21,15.90
2007,07,26,08,22,15.90
2007,07,26,08,23,15.90
2007,07,26,08,24,15.90
2007,07,26,08,25,16.00
2007,07,26,08,26,16.10
2007,07,26,08,27,16.10
2007,07,26,08,28,16.10
2007,07,26,08,29,16.20
2007,07,26,08,30,16.30
2007,07,26,08,31,16.30
2007,07,26,08,32,16.30
2007,07,26,08,33,16.30
2007,07,26,08,34,16.30
2007,07,26,08,35,16.30
2007,07,26,08,36,16.40
2007,07,26,08,37,16.40
2007,07,26,08,38,16.40
2007,07,26,08,39,16.40
2007,07,26,08,40,16.40
2007,07,26,08,41,16.40
2007,07,26,08,42,16.40
2007,07,26,08,43,16.40
2007,07,26,08,44,16.40
2007,07,26,08,45,16.50
2007,07,26,08,46,16.70
2007,07,26,08,47,16.80
2007,07,26,08,48,16.90
2007,07,26,08,49,17.00
2007,07,26,08,50,17.00
2007,07,26,08,51,17.10
2007,07,26,08,52,17.20
2007,07,26,08,53,17.30
2007,07,26,08,54,17.30
2007,07,26,08,55,17.30
2007,07,26,08,56,17.40
2007,07,26,08,57,17.50
2007,07,26,08,58,17.50
2007,07,26,08,59,17.50
2007,07,26,09,00,17.50
2007,07,26,09,01,17.50
2007,07,26,09,02,17.50
2007,07,26,09,03,17.70
2007,07,26,09,04,17.70
2007,07,26,09,05,17.80
2007,07,26,09,06,17.90
2007,07,26,09,07,17.90
2007,07,26,09,08,17.90
2007,07,26,09,09,17.90
2007,07,26,09,10,17.90
2007,07,26,09,11,17.90
2007,07,26,09,12,18.00
2007,07,26,09,13,18.10
2007,07,26,09,14,18.00
2007,07,26,09,15,18.00
2007,07,26,09,16,18.10
2007,07,26,09,17,18.10
2007,07,26,09,18,18.20
2007,07,26,09,19,18.20
2007,07,26,09,20,18.20
2007,07,26,09,21,18.20
2007,07,26,09,22,18.20
2007,07,26,09,23,18.30
2007,07,26,09,24,18.40
2007,07,26,09,25,18.50
2007,07,26,09,26,18.60
2007,07,26,09,27,18.70
2007,07,26,09,28,18.80
2007,07,26,09,29,19.00
2007,07,26,09,30,19.10
2007,07,26,09,31,19.10
2007,07,26,09,32,19.10
2007,07,26,09,33,19.10
2007,07,26,09,34,19.10
2007,07,26,09,35,19.10
2007,07,26,09,36,19.20
2007,07,26,09,37,19.30
2007,07,26,09,38,19.40
2007,07,26,09,39,19.50
2007,07,26,09,40,19.40
2007,07,26,09,41,19.40
2007,07,26,09,42,19.50
2007,07,26,09,43,19.50
2007,07,26,09,44,19.50
2007,07,26,09,45,19.60
2007,07,26,09,46,19.60
2007,07,26,09,47,19.70
2007,07,26,09,48,19.80
2007,07,26,09,49,19.80
2007,07,26,09,50,19.90
2007,07,26,09,51,19.90
2007,07,26,09,52,19.90
2007,07,26,09,53,19.90
2007,07,26,09,54,19.80
2007,07,26,09,55,19.80
2007,07,26,09,56,19.60
2007,07,26,09,57,19.60
2007,07,26,09,58,19.50
2007,07,26,09,59,19.40
2007,07,26,10,00,19.40
2007,07,26,10,01,19.40
2007,07,26,10,02,19.30
2007,07,26,10,03,19.40
2007,07,26,10,04,19.40
2007,07,26,10,05,19.40
2007,07,26,10,06,19.40
2007,07,26,10,07,19.50
2007,07,26,10,08,19.50
2007,07,26,10,09,19.60
2007,07,26,10,10,19.70
2007,07,26,10,11,19.70
2007,07,26,10,12,19.70
2007,07,26,10,13,19.80
2007,07,26,10,14,19.80
2007,07,26,10,15,19.80
2007,07,26,10,16,19.70
2007,07,26,10,17,19.80
2007,07,26,10,18,19.70
2007,07,26,10,19,19.70
2007,07,26,10,20,19.80
2007,07,26,10,21,19.80
2007,07,26,10,22,19.90
2007,07,26,10,23,19.90
2007,07,26,10,24,19.90
2007,07,26,10,25,19.90
2007,07,26,10,26,19.90
2007,07,26,10,27,19.90
2007,07,26,10,28,20.10
2007,07,26,10,29,20.10
2007,07,26,10,30,20.20
2007,07,26,10,31,20.30
2007,07,26,10,32,20.30
2007,07,26,10,33,20.30
2007,07,26,10,34,20.40
2007,07,26,10,35,20.50
2007,07,26,10,36,20.60
2007,07,26,10,37,20.80
2007,07,26,10,38,20.90
2007,07,26,10,39,21.00
2007,07,26,10,40,21.10
2007,07,26,10,41,21.20
2007,07,26,10,42,21.30
2007,07,26,10,43,21.30
2007,07,26,10,44,21.40
2007,07,26,10,45,21.50
2007,07,26,10,46,21.60
2007,07,26,10,47,21.70
2007,07,26,10,48,21.50
2007,07,26,10,49,21.40
2007,07,26,10,50,21.30
2007,07,26,10,51,21.30
2007,07,26,10,52,21.30
2007,07,26,10,53,21.30
2007,07,26,10,54,21.30
2007,07,26,10,55,21.20
2007,07,26,10,56,21.20
2007,07,26,10,57,21.00
2007,07,26,10,58,21.00
2007,07,26,10,59,21.00
2007,07,26,11,00,21.00
2007,07,26,11,01,21.10
2007,07,26,11,02,21.10
2007,07,26,11,03,21.30
2007,07,26,11,04,21.30
2007,07,26,11,05,21.30
2007,07,26,11,06,21.30
2007,07,26,11,07,21.20
2007,07,26,11,08,21.20
2007,07,26,11,09,21.10
2007,07,26,11,10,21.00
2007,07,26,11,11,20.90
2007,07,26,11,12,21.00
2007,07,26,11,13,21.00
2007,07,26,11,14,21.00
2007,07,26,11,15,20.80
2007,07,26,11,16,20.80
2007,07,26,11,17,20.80
2007,07,26,11,18,20.80
2007,07,26,11,19,20.80
2007,07,26,11,20,21.00
2007,07,26,11,21,21.00
2007,07,26,11,22,21.10
2007,07,26,11,23,21.30
2007,07,26,11,24,21.30
2007,07,26,11,25,21.30
2007,07,26,11,26,21.40
2007,07,26,11,27,21.40
2007,07,26,11,28,21.40
2007,07,26,11,29,21.30
2007,07,26,11,30,21.30
2007,07,26,11,31,21.30
2007,07,26,11,32,21.30
2007,07,26,11,33,21.30
2007,07,26,11,34,21.30
2007,07,26,11,35,21.30
2007,07,26,11,36,21.30
2007,07,26,11,37,21.30
2007,07,26,11,38,21.10
2007,07,26,11,39,21.00
2007,07,26,11,40,21.00
2007,07,26,11,41,21.00
2007,07,26,11,42,20.90
2007,07,26,11,43,21.00
2007,07,26,11,44,21.00
2007,07,26,11,45,21.00
2007,07,26,11,46,21.00
2007,07,26,11,47,20.90
2007,07,26,11,48,20.80
2007,07,26,11,49,20.80
2007,07,26,11,50,21.00
2007,07,26,11,51,21.10
2007,07,26,11,52,21.10
2007,07,26,11,53,21.30
2007,07,26,11,54,21.40
2007,07,26,11,55,21.50
2007,07,26,11,56,21.60
2007,07,26,11,57,21.40
2007,07,26,11,58,21.30
2007,07,26,11,59,21.20
2007,07,26,12,00,21.20
2007,07,26,12,01,21.30
2007,07,26,12,02,21.30
2007,07,26,12,03,21.30
2007,07,26,12,04,21.20
2007,07,26,12,05,21.20
2007,07,26,12,06,21.10
2007,07,26,12,07,21.10
2007,07,26,12,08,21.10
2007,07,26,12,09,21.00
2007,07,26,12,10,21.00
2007,07,26,12,11,21.00
2007,07,26,12,12,21.00
2007,07,26,12,13,21.10
2007,07,26,12,14,21.10
2007,07,26,12,15,21.20
2007,07,26,12,16,21.10
2007,07,26,12,17,21.10
2007,07,26,12,18,21.10
2007,07,26,12,19,21.20
2007,07,26,12,20,21.30
2007,07,26,12,21,21.30
2007,07,26,12,22,21.40
2007,07,26,12,23,21.40
2007,07,26,12,24,21.30
2007,07,26,12,25,21.40
2007,07,26,12,26,21.50
2007,07,26,12,27,21.60
2007,07,26,12,28,21.80
2007,07,26,12,29,21.80
2007,07,26,12,30,21.90
2007,07,26,12,31,22.10
2007,07,26,12,32,22.20
2007,07,26,12,33,22.30
2007,07,26,12,34,22.20
2007,07,26,12,35,22.10
2007,07,26,12,36,22.20
2007,07,26,12,37,22.30
2007,07,26,12,38,22.30
2007,07,26,12,39,22.20
2007,07,26,12,40,22.10
2007,07,26,12,41,22.00
2007,07,26,12,42,21.80
2007,07,26,12,43,21.80
2007,07,26,12,44,21.70
2007,07,26,12,45,21.50
2007,07,26,12,46,21.30
2007,07,26,12,47,21.30
2007,07,26,12,48,21.30
2007,07,26,12,49,21.40
2007,07,26,12,50,21.60
2007,07,26,12,51,21.60
2007,07,26,12,52,21.60
2007,07,26,12,53,21.60
2007,07,26,12,54,21.60
2007,07,26,12,55,21.50
2007,07,26,12,56,21.30
2007,07,26,12,57,21.10
2007,07,26,12,58,21.10
2007,07,26,12,59,21.00
2007,07,26,13,00,20.90
2007,07,26,13,01,20.80
2007,07,26,13,02,20.60
2007,07,26,13,03,20.60
2007,07,26,13,04,20.60
2007,07,26,13,05,20.50
2007,07,26,13,06,20.50
2007,07,26,13,07,20.60
2007,07,26,13,08,20.60
2007,07,26,13,09,20.60
2007,07,26,13,10,20.60
2007,07,26,13,11,20.60
2007,07,26,13,12,20.60
2007,07,26,13,13,20.60
2007,07,26,13,14,20.70
2007,07,26,13,15,20.70
2007,07,26,13,16,20.80
2007,07,26,13,17,20.90
2007,07,26,13,18,20.90
2007,07,26,13,19,21.00
2007,07,26,13,20,20.90
2007,07,26,13,21,20.90
2007,07,26,13,22,21.00
2007,07,26,13,23,21.00
2007,07,26,13,24,21.10
2007,07,26,13,25,21.20
2007,07,26,13,26,21.30
2007,07,26,13,27,21.30
2007,07,26,13,28,21.40
2007,07,26,13,29,21.50
2007,07,26,13,30,21.60
2007,07,26,13,31,21.60
2007,07,26,13,32,21.60
2007,07,26,13,33,21.60
2007,07,26,13,34,21.60
2007,07,26,13,35,21.60
2007,07,26,13,36,21.60
2007,07,26,13,37,21.60
2007,07,26,13,38,21.60
2007,07,26,13,39,21.70
2007,07,26,13,40,21.70
2007,07,26,13,41,21.70
2007,07,26,13,42,21.80
2007,07,26,13,43,21.80
2007,07,26,13,44,21.80
2007,07,26,13,45,21.80
2007,07,26,13,46,21.70
2007,07,26,13,47,21.70
2007,07,26,13,48,21.70
2007,07,26,13,49,21.70
2007,07,26,13,50,21.70
2007,07,26,13,51,21.70
2007,07,26,13,52,21.50
2007,07,26,13,53,21.30
2007,07,26,13,54,21.50
2007,07,26,13,55,21.60
2007,07,26,13,56,21.70
2007,07,26,13,57,21.80
2007,07,26,13,58,21.70
2007,07,26,13,59,21.60
2007,07,26,14,00,21.60
2007,07,26,14,01,21.70
2007,07,26,14,02,21.70
2007,07,26,14,03,21.80
2007,07,26,14,04,21.80
2007,07,26,14,05,21.90
2007,07,26,14,06,22.00
2007,07,26,14,07,22.00
2007,07,26,14,08,22.00
2007,07,26,14,09,22.00
2007,07,26,14,10,21.90
2007,07,26,14,11,21.80
2007,07,26,14,12,21.70
2007,07,26,14,13,21.60
2007,07,26,14,14,21.60
2007,07,26,14,15,21.60
2007,07,26,14,16,21.60
2007,07,26,14,17,21.60
2007,07,26,14,18,21.60
2007,07,26,14,19,21.40
2007,07,26,14,20,21.40
2007,07,26,14,21,21.50
2007,07,26,14,22,21.60
2007,07,26,14,23,21.60
2007,07,26,14,24,21.80
2007,07,26,14,25,21.80
2007,07,26,14,26,21.80
2007,07,26,14,27,21.80
2007,07,26,14,28,21.90
2007,07,26,14,29,21.90
2007,07,26,14,30,21.90
2007,07,26,14,31,21.70
2007,07,26,14,32,21.60
2007,07,26,14,33,21.60
2007,07,26,14,34,21.60
2007,07,26,14,35,21.60
2007,07,26,14,36,21.60
2007,07,26,14,37,21.60
2007,07,26,14,38,21.60
2007,07,26,14,39,21.70
2007,07,26,14,40,21.70
2007,07,26,14,41,21.70
2007,07,26,14,42,21.60
2007,07,26,14,43,21.60
2007,07,26,14,44,21.60
2007,07,26,14,45,21.60
2007,07,26,14,46,21.60
2007,07,26,14,47,21.60
2007,07,26,14,48,21.50
2007,07,26,14,49,21.30
2007,07,26,14,50,21.30
2007,07,26,14,51,21.40
2007,07,26,14,52,21.50
2007,07,26,14,53,21.60
2007,07,26,14,54,21.60
2007,07,26,14,55,21.60
2007,07,26,14,56,21.70
2007,07,26,14,57,21.70
2007,07,26,14,58,21.70
2007,07,26,14,59,21.70
2007,07,26,15,00,21.70
2007,07,26,15,01,21.60
2007,07,26,15,02,21.60
2007,07,26,15,03,21.60
2007,07,26,15,04,21.60
2007,07,26,15,05,21.60
2007,07,26,15,06,21.70
2007,07,26,15,07,21.70
2007,07,26,15,08,21.80
2007,07,26,15,09,21.90
2007,07,26,15,10,21.90
2007,07,26,15,11,21.90
2007,07,26,15,12,21.90
2007,07,26,15,13,21.80
2007,07,26,15,14,21.80
2007,07,26,15,15,21.80
2007,07,26,15,16,21.80
2007,07,26,15,17,21.80
2007,07,26,15,18,21.80
2007,07,26,15,19,21.80
2007,07,26,15,20,21.70
2007,07,26,15,21,21.70
2007,07,26,15,22,21.70
2007,07,26,15,23,21.70
2007,07,26,15,24,21.70
2007,07,26,15,25,21.70
2007,07,26,15,26,21.70
2007,07,26,15,27,21.70
2007,07,26,15,28,21.70
2007,07,26,15,29,21.70
2007,07,26,15,30,21.90
2007,07,26,15,31,22.00
2007,07,26,15,32,22.00
2007,07,26,15,33,22.10
2007,07,26,15,34,22.10
2007,07,26,15,35,22.00
2007,07,26,15,36,22.00
2007,07,26,15,37,22.10
2007,07,26,15,38,22.20
2007,07,26,15,39,22.20
2007,07,26,15,40,22.30
2007,07,26,15,41,22.20
2007,07,26,15,42,22.20
2007,07,26,15,43,22.20
2007,07,26,15,44,22.10
2007,07,26,15,45,22.10
2007,07,26,15,46,22.10
2007,07,26,15,47,22.10
2007,07,26,15,48,22.10
2007,07,26,15,49,22.10
2007,07,26,15,50,22.10
2007,07,26,15,51,22.10
2007,07,26,15,52,22.10
2007,07,26,15,53,22.20
2007,07,26,15,54,22.20
2007,07,26,15,55,22.20
2007,07,26,15,56,22.10
2007,07,26,15,57,22.10
2007,07,26,15,58,22.20
2007,07,26,15,59,22.30
2007,07,26,16,00,22.30
2007,07,26,16,01,22.40
2007,07,26,16,02,22.40
2007,07,26,16,03,22.50
2007,07,26,16,04,22.50
2007,07,26,16,05,22.60
2007,07,26,16,06,22.50
2007,07,26,16,07,22.40
2007,07,26,16,08,22.30
2007,07,26,16,09,22.30
2007,07,26,16,10,22.40
2007,07,26,16,11,22.40
2007,07,26,16,12,22.50
2007,07,26,16,13,22.60
2007,07,26,16,14,22.60
2007,07,26,16,15,22.50
2007,07,26,16,16,22.50
2007,07,26,16,17,22.40
2007,07,26,16,18,22.30
2007,07,26,16,19,22.30
2007,07,26,16,20,22.30
2007,07,26,16,21,22.40
2007,07,26,16,22,22.50
2007,07,26,16,23,22.50
2007,07,26,16,24,22.50
2007,07,26,16,25,22.60
2007,07,26,16,26,22.70
2007,07,26,16,27,22.80
2007,07,26,16,28,22.80
2007,07,26,16,29,22.90
2007,07,26,16,30,23.00
2007,07,26,16,31,23.10
2007,07,26,16,32,23.00
2007,07,26,16,33,22.90
2007,07,26,16,34,22.90
2007,07,26,16,35,22.80
2007,07,26,16,36,22.70
2007,07,26,16,37,22.60
2007,07,26,16,38,22.50
2007,07,26,16,39,22.50
2007,07,26,16,40,22.40
2007,07,26,16,41,22.30
2007,07,26,16,42,22.30
2007,07,26,16,43,22.40
2007,07,26,16,44,22.40
2007,07,26,16,45,22.30
2007,07,26,16,46,22.30
2007,07,26,16,47,22.30
2007,07,26,16,48,22.30
2007,07,26,16,49,22.40
2007,07,26,16,50,22.40
2007,07,26,16,51,22.40
2007,07,26,16,52,22.40
2007,07,26,16,53,22.40
2007,07,26,16,54,22.30
2007,07,26,16,55,22.30
2007,07,26,16,56,22.30
2007,07,26,16,57,22.20
2007,07,26,16,58,22.20
2007,07,26,16,59,22.20
2007,07,26,17,00,22.30
2007,07,26,17,01,22.30
2007,07,26,17,02,22.30
2007,07,26,17,03,22.30
2007,07,26,17,04,22.30
2007,07,26,17,05,22.20
2007,07,26,17,06,22.20
2007,07,26,17,07,22.20
2007,07,26,17,08,22.10
2007,07,26,17,09,22.10
2007,07,26,17,10,22.10
2007,07,26,17,11,22.10
2007,07,26,17,12,22.10
2007,07,26,17,13,22.20
2007,07,26,17,14,22.30
2007,07,26,17,15,22.30
2007,07,26,17,16,22.20
2007,07,26,17,17,22.20
2007,07,26,17,18,22.20
2007,07,26,17,19,22.10